| time (UTC) | temp F | wind direction | speed MPH | gust MPH | rain 1hr in | rain 24hr in | rain mn in | humidity % | barometer mb |
| 20260504181534 | 35 | 256 | 18.0 | 33.0 | 0.00 | 0.00 | 0.00 | 98 | 1002.7 |
| 20260504180033 | 35 | 260 | 21.0 | 36.0 | 0.00 | 0.00 | 0.00 | 98 | 1002.7 |
| 20260504174530 | 35 | 245 | 21.0 | 32.0 | 0.00 | 0.00 | 0.00 | 98 | 1002.8 |
| 20260504173034 | 35 | 291 | 17.0 | 32.0 | 0.00 | 0.00 | 0.00 | 98 | 1002.9 |
| 20260504171535 | 35 | 245 | 21.0 | 31.0 | 0.00 | 0.00 | 0.00 | 98 | 1002.9 |
| 20260504081534 | 27 | 245 | 19.0 | 27.0 | 0.00 | 0.01 | 0.00 | 82 | 1002.4 |
| 20260504044532 | 26 | 245 | 19.0 | 32.0 | 0.00 | 0.01 | 0.00 | 87 | 1001.8 |
| 20260504043034 | 26 | 325 | 21.0 | 31.0 | 0.00 | 0.01 | 0.00 | 87 | 1001.6 |
| 20260504041533 | 26 | 198 | 21.0 | 29.0 | 0.00 | 0.01 | 0.00 | 87 | 1001.8 |
| 20260504040034 | 26 | 275 | 20.0 | 30.0 | 0.00 | 0.01 | 0.00 | 87 | 1001.4 |
| 20260504034531 | 25 | 331 | 21.0 | 30.0 | 0.00 | 0.01 | 0.01 | 88 | 1001.3 |
| 20260504033032 | 25 | 245 | 18.0 | 30.0 | 0.00 | 0.01 | 0.01 | 89 | 1001.3 |
| 20260504031532 | 25 | 245 | 20.0 | 30.0 | 0.00 | 0.01 | 0.01 | 89 | 1001.2 |
| 20260504030035 | 25 | 292 | 22.0 | 31.0 | 0.00 | 0.01 | 0.01 | 88 | 1001.3 |
| 20260504024532 | 25 | 245 | 22.0 | 33.0 | 0.00 | 0.01 | 0.01 | 88 | 1001.2 |
| 20260504023031 | 25 | 314 | 22.0 | 31.0 | 0.00 | 0.01 | 0.01 | 88 | 1001.2 |
| 20260504021532 | 25 | 245 | 22.0 | 31.0 | 0.00 | 0.01 | 0.01 | 89 | 1001.2 |
| 20260504020033 | 25 | 245 | 20.0 | 29.0 | 0.00 | 0.01 | 0.01 | 89 | 1001.1 |
| 20260504014534 | 25 | 245 | 21.0 | 34.0 | 0.00 | 0.01 | 0.01 | 88 | 1001.2 |
| 20260504013036 | 25 | 245 | 23.0 | 33.0 | 0.00 | 0.01 | 0.01 | 88 | 1001.1 |
| 20260504011534 | 25 | 245 | 22.0 | 34.0 | 0.00 | 0.01 | 0.01 | 88 | 1001.1 |
| 20260504010029 | 25 | 245 | 19.0 | 30.0 | 0.00 | 0.01 | 0.01 | 88 | 1000.8 |
| 20260504004530 | 26 | 287 | 23.0 | 34.0 | 0.00 | 0.01 | 0.01 | 87 | 1000.5 |
| 20260504003039 | 26 | 245 | 23.0 | 31.0 | 0.00 | 0.01 | 0.01 | 86 | 1000.3 |
| 20260504001538 | 26 | 245 | 21.0 | 32.0 | 0.00 | 0.01 | 0.01 | 86 | 1000.4 |
| 20260504000053 | 26 | 245 | 19.0 | 31.0 | 0.00 | 0.01 | 0.01 | 85 | 1000.3 |
| 20260503234537 | 27 | 287 | 20.0 | 30.0 | 0.00 | 0.01 | 0.01 | 83 | 1000.2 |
| 20260503233031 | 28 | 245 | 25.0 | 37.0 | 0.00 | 0.01 | 0.01 | 82 | 1000.0 |
| 20260503231532 | 28 | 245 | 23.0 | 34.0 | 0.00 | 0.01 | 0.01 | 82 | 1000.3 |
| 20260503230034 | 28 | 245 | 21.0 | 31.0 | 0.00 | 0.01 | 0.01 | 83 | 1000.4 |
| 20260503224533 | 28 | 245 | 18.0 | 33.0 | 0.00 | 0.02 | 0.01 | 82 | 1000.2 |
| 20260503223038 | 28 | 245 | 19.0 | 37.0 | 0.00 | 0.02 | 0.01 | 82 | 1000.0 |
| 20260503221546 | 28 | 4 | 19.0 | 32.0 | 0.00 | 0.02 | 0.01 | 83 | 1000.0 |
| 20260503220030 | 28 | 245 | 22.0 | 34.0 | 0.00 | 0.02 | 0.01 | 83 | 999.7 |
| 20260503214539 | 28 | 245 | 15.0 | 28.0 | 0.00 | 0.02 | 0.01 | 85 | 1000.0 |
| 20260503213035 | 28 | 245 | 18.0 | 28.0 | 0.00 | 0.02 | 0.01 | 84 | 1000.0 |
| 20260503211533 | 28 | 245 | 17.0 | 32.0 | 0.00 | 0.02 | 0.01 | 83 | 999.7 |
| 20260503210033 | 29 | 325 | 20.0 | 32.0 | 0.00 | 0.02 | 0.01 | 84 | 999.6 |
| 20260503204531 | 29 | 245 | 20.0 | 30.0 | 0.00 | 0.02 | 0.01 | 84 | 1000.0 |
| 20260503203041 | 29 | 245 | 18.0 | 32.0 | 0.00 | 0.02 | 0.01 | 86 | 1000.1 |
| 20260503201534 | 29 | 245 | 20.0 | 29.0 | 0.00 | 0.02 | 0.01 | 86 | 1000.0 |
| 20260503200036 | 29 | 245 | 17.0 | 27.0 | 0.00 | 0.02 | 0.01 | 88 | 1000.3 |
| 20260503194531 | 29 | 245 | 18.0 | 28.0 | 0.00 | 0.02 | 0.01 | 90 | 1000.4 |
| 20260503193032 | 29 | 245 | 13.0 | 24.0 | 0.00 | 0.02 | 0.01 | 91 | 1000.4 |
| 20260503191532 | 29 | 308 | 14.0 | 23.0 | 0.00 | 0.02 | 0.01 | 93 | 1000.4 |
| 20260503190037 | 29 | 245 | 14.0 | 22.0 | 0.00 | 0.02 | 0.01 | 93 | 1000.3 |
| 20260503184532 | 29 | 333 | 12.0 | 22.0 | 0.00 | 0.02 | 0.01 | 95 | 1000.0 |
| 20260503183031 | 28 | 245 | 11.0 | 18.0 | 0.00 | 0.02 | 0.01 | 95 | 1000.1 |